This is the latest recevied weather packets stored in our database for station/object KQ4DLB-13. If no packets are shown the sender has not sent any weather packets the latest 1 day(s).
| Time | Temp. | Humidity | Pressure | Rain* | Wind** | Luminosity | Snow |
|---|---|---|---|---|---|---|---|
| 1778013902 | 22.22° C | 56% | 984 hPa | 0 mm | 4.02 m/s, 333° | 227 W/m² | - |
| 1778013602 | 22.22° C | 55% | 984.2 hPa | 0 mm | 4.02 m/s, 353° | 381 W/m² | - |
| 1778013302 | 22.78° C | 55% | 984.2 hPa | 0 mm | 4.47 m/s, 340° | 572 W/m² | - |
| 1778013002 | 22.78° C | 55% | 984.2 hPa | 0 mm | 5.81 m/s, 343° | 591 W/m² | - |
| 1778012702 | 23.33° C | 54% | 984.4 hPa | 0 mm | 5.36 m/s, 91° | 825 W/m² | - |
| 1778012402 | 23.33° C | 55% | 984.5 hPa | 0 mm | 3.58 m/s, 271° | 830 W/m² | - |
| 1778012103 | 23.33° C | 55% | 984.5 hPa | 0 mm | 4.92 m/s, 305° | 885 W/m² | - |
| 1778011802 | 23.33° C | 54% | 984.5 hPa | 0 mm | 4.47 m/s, 264° | 901 W/m² | - |
| 1778011502 | 22.78° C | 55% | 984.5 hPa | 0 mm | 4.47 m/s, 316° | 871 W/m² | - |
| 1778011202 | 22.78° C | 55% | 984.5 hPa | 0 mm | 4.47 m/s, 334° | 870 W/m² | - |
| 1778010901 | 22.78° C | 55% | 984.6 hPa | 0 mm | 4.47 m/s, 342° | 970 W/m² | - |
| 1778010602 | 22.78° C | 55% | 984.7 hPa | 0 mm | 4.02 m/s, 217° | 899 W/m² | - |
| 1778010302 | 22.78° C | 55% | 984.6 hPa | 0 mm | 5.36 m/s, 343° | 729 W/m² | - |
| 1778010002 | 22.78° C | 55% | 984.8 hPa | 0 mm | 4.47 m/s, 299° | 917 W/m² | - |
| 1778009702 | 22.78° C | 55% | 984.9 hPa | 0 mm | 4.47 m/s, 308° | 902 W/m² | - |
| 1778009402 | 22.78° C | 56% | 984.9 hPa | 0 mm | 4.92 m/s, 359° | 943 W/m² | - |
| 1778009102 | 22.78° C | 57% | 985 hPa | 0 mm | 4.47 m/s, 353° | 959 W/m² | - |
| 1778008802 | 22.78° C | 57% | 985.1 hPa | 0 mm | 4.47 m/s, 162° | 974 W/m² | - |
| 1778008502 | 22.78° C | 57% | 985.2 hPa | 0 mm | 4.92 m/s, 268° | 994 W/m² | - |
| 1778008202 | 22.22° C | 59% | 985.4 hPa | 0 mm | 4.02 m/s, 189° | 956 W/m² | - |
| 1778007902 | 22.22° C | 59% | 985.4 hPa | 0 mm | 3.58 m/s, 330° | 987 W/m² | - |
| 1778007602 | 22.22° C | 59% | 985.5 hPa | 0 mm | 4.92 m/s, 327° | 987 W/m² | - |
| 1778007302 | 22.22° C | 59% | 985.6 hPa | 0 mm | 4.02 m/s, 155° | 100 W/m² | - |
| 1778007002 | 21.67° C | 59% | 985.6 hPa | 0 mm | 3.58 m/s, 282° | 104 W/m² | - |
| 1778006702 | 21.67° C | 60% | 985.5 hPa | 0 mm | 4.47 m/s, 333° | 103 W/m² | - |
* Rain latest hour (hover to see other rain measurements)
** Current wind speed in m/s (hover to see current wind gust speed)